7 * 24
多渠道服务支持
STARLINK-37410(NORAD编号68823)是美国SpaceX公司星链(Starlink)卫星互联网星座的一员,属于低轨通信卫星。星链项目旨在通过大规模低轨卫星部署,为全球尤其是偏远地区提供高速低延迟的宽带互联网服务。该卫星运行于近地轨道,继承了星链卫星小型化设计,依托星座组网实现全球覆盖,助力SpaceX扩展全球卫星通信网络规模,目前已随星座部署计划进入预定轨道,参与提供天地一体化互联网接入服务,同时其部署也引发了太空拥堵等相关讨论。
美国
(US)
| 数据来源 | 国际轨道数据 |
| 星历时间: | 2026-05-24T10:05:48+0800 1天前 查看轨道信息 |
| 半长轴: | 6722.237km |
| 偏心率: | 0.0001917 |
| 轨道倾角: | 97.286° |
| 近地点辐角 | 92.950° |
| 升交点赤经 | 350.708° |
| 平近点角 | 267.198° |
| 近地点: | 342.811km |
| 远地点: | 345.389km |
| 周期: | 91.418分钟 |
| 每日圈数: | 15.75187 |